This demonstration page uses our WeatherBlox Daily Observations layout. Learn more.

Left ArrowRight Arrow

53.62937, 11.41316

Hourly Observations for October 20, 2019

Temp ( °F °C ) Dew Point ( °F °C ) Humidity (%) Winds ( mph kmh ) Pressure ( in mb ) Visibility ( mi km ) Precip ( " mm )
6:50 am 06:50 Mostly Clear with Mist and Fog 52 11 50 10 94 94 VRB 2 4 29.77 1008 2 4 N/A
7:20 am 07:20 Mostly Clear with Mist and Fog 52 11 50 10 94 94 SSE 5 7 29.77 1008 2 3 N/A
7:50 am 07:50 Partly Cloudy with Fog 50 10 50 10 100 100 SSE 3 6 29.77 1008 0 1 N/A
8:20 am 08:20 Partly Cloudy with Fog 50 10 50 10 100 100 VRB 2 4 29.80 1009 1 1 N/A
8:50 am 08:50 Partly Cloudy with Mist and Fog 50 10 48 9 94 94 VRB 1 2 29.80 1009 1 2 N/A
9:20 am 09:20 Partly Cloudy with Mist and Fog 50 10 50 10 100 100 VRB 1 2 29.80 1009 2 4 N/A
9:50 am 09:50 Mostly Sunny 52 11 52 11 100 100 VRB 1 2 29.83 1010 4 6 N/A
10:20 am 10:20 Mostly Sunny 52 11 41 5 67 67 Calm 29.83 1010 6 9 N/A
10:50 am 10:50 Partly Cloudy with Light Rain 54 12 52 11 94 94 SE 3 6 29.83 1010 30 48 N/A
11:20 am 11:20 Mostly Sunny 54 12 54 12 100 100 VRB 2 4 29.83 1010 30 48 N/A
11:50 am 11:50 Mostly Sunny 55 13 54 12 94 94 VRB 1 2 29.83 1010 30 48 N/A
12:20 pm 12:20 Mostly Cloudy 55 13 54 12 94 94 VRB 1 2 29.83 1010 30 48 N/A
12:50 pm 12:50 Mostly Cloudy 55 13 54 12 94 94 VRB 2 4 29.83 1010 30 48 N/A
1:20 pm 13:20 Mostly Sunny 57 14 54 12 88 88 SE 5 7 29.83 1010 30 48 N/A
1:50 pm 13:50 Mostly Cloudy 57 14 54 12 88 88 S 3 6 29.83 1010 30 48 N/A
2:20 pm 14:20 Mostly Cloudy 57 14 54 12 88 88 VRB 2 4 29.86 1011 30 48 N/A
2:50 pm 14:50 Mostly Cloudy 57 14 52 11 82 82 SSE 3 6 29.86 1011 30 48 N/A
3:20 pm 15:20 Mostly Cloudy 57 14 52 11 82 82 VRB 2 4 29.86 1011 30 48 N/A
3:50 pm 15:50 Mostly Cloudy with Light Rain 57 14 52 11 82 82 VRB 1 2 29.86 1011 30 48 N/A
4:20 pm 16:20 Mostly Cloudy with Light Rain 57 14 54 12 88 88 VRB 1 2 29.86 1011 30 48 N/A
4:50 pm 16:50 Mostly Cloudy with Light Rain 55 13 54 12 94 94 NNW 1 2 29.86 1011 30 48 N/A
5:20 pm 17:20 Mostly Cloudy with Light Rain 55 13 54 12 94 94 VRB 2 4 29.86 1011 5 8 N/A
5:50 pm 17:50 Mostly Cloudy with Light Rain 55 13 54 12 94 94 NNW 5 7 29.88 1012 5 8 N/A
6:20 pm 18:20 Mostly Cloudy with Light Rain 54 12 50 10 88 88 NNW 3 6 29.89 1012 30 48 N/A
6:50 pm 18:50 Mostly Cloudy with Light Rain 54 12 52 11 94 94 ENE 3 6 29.89 1012 30 48 N/A
7:20 pm 19:20 Mostly Cloudy with Light Rain 52 11 50 10 94 94 NE 2 4 29.89 1012 6 9 N/A
7:50 pm 19:50 Mostly Cloudy with Light Rain 52 11 50 10 94 94 NNE 7 11 29.89 1012 6 9 N/A
8:20 pm 20:20 Mostly Cloudy with Light Rain 52 11 50 10 94 94 NNE 3 6 29.89 1012 30 48 N/A
8:50 pm 20:50 Mostly Cloudy with Light Rain 52 11 50 10 94 94 NE 5 7 29.91 1013 4 7 N/A

Powered by AerisWeather